CW5316 Weather Reports


Display with metric or nautical units.
time (UTC)temp
F
wind
direction
speed
MPH
gust
MPH
rain 1hr
in
rain 24hr
in
rain mn
in
humidity
%
barometer
mb
20260506044018 51 0 0.0 0.0 0.00 0.00 0.00 93 1016.4
20260506043522 51 0 0.0 0.0 0.00 0.00 0.00 93 1016.4
20260506043042 51 0 0.0 0.0 0.00 0.00 0.00 93 1016.3
20260506042521 51 0 0.0 0.0 0.00 0.00 0.00 93 1016.3
20260506042020 51 0 0.0 0.0 0.00 0.00 0.00 92 1016.1
20260506041537 51 0 0.0 0.0 0.00 0.00 0.00 92 1016.2
20260506041020 51 0 0.0 0.0 0.00 0.00 0.00 92 1016.2
20260506040520 52 0 0.0 0.0 0.00 0.00 0.00 91 1016.2
20260506040035 52 0 0.0 0.0 0.00 0.00 0.00 91 1016.2
20260506035523 52 0 0.0 0.0 0.00 0.00 0.00 91 1016.2
20260506035024 52 0 0.0 0.0 0.00 0.00 0.00 91 1016.2
20260506034548 52 0 0.0 0.0 0.00 0.00 0.00 90 1016.0
20260506034020 53 0 0.0 0.0 0.00 0.00 0.00 90 1016.1
20260506033518 53 0 0.0 0.0 0.00 0.00 0.00 90 1015.9
20260506033046 53 0 0.0 0.0 0.00 0.00 0.00 90 1015.8
20260506032521 53 0 0.0 0.0 0.00 0.00 0.00 90 1015.8
20260506032021 53 0 0.0 0.0 0.00 0.00 0.00 89 1015.8
20260506031547 54 0 0.0 0.0 0.00 0.00 0.00 89 1015.8
20260506031021 54 0 0.0 0.0 0.00 0.00 0.00 89 1015.8
20260506030521 54 0 0.0 0.0 0.00 0.00 0.00 89 1015.7
20260506030050 54 0 0.0 0.0 0.00 0.00 0.00 88 1015.5
20260506025521 54 0 0.0 0.0 0.00 0.00 0.00 88 1015.5
20260506025020 54 0 0.0 0.0 0.00 0.00 0.00 88 1015.6
20260506024548 55 0 0.0 0.0 0.00 0.00 0.00 87 1015.5
20260506024021 55 0 0.0 0.0 0.00 0.00 0.00 87 1015.5
20260506023522 55 0 0.0 0.0 0.00 0.00 0.00 87 1015.4
20260506023042 55 0 0.0 0.0 0.00 0.00 0.00 86 1015.4
20260506022521 55 0 0.0 0.0 0.00 0.00 0.00 86 1015.4
20260506022022 56 0 0.0 0.0 0.00 0.00 0.00 85 1015.4
20260506021556 56 0 0.0 0.0 0.00 0.00 0.00 85 1015.4
20260506021021 56 0 0.0 0.0 0.00 0.00 0.00 85 1015.4
20260506020523 56 0 0.0 0.0 0.00 0.00 0.00 84 1015.5
20260506020039 56 0 0.0 0.0 0.00 0.00 0.00 84 1015.4
20260506015522 56 0 0.0 0.0 0.00 0.00 0.00 84 1015.4
20260506015022 57 0 0.0 0.0 0.00 0.00 0.00 83 1015.4
20260506014536 57 0 0.0 1.0 0.00 0.00 0.00 82 1015.4
20260506014023 58 0 0.0 2.0 0.00 0.00 0.00 81 1015.4
20260506013521 58 252 0.0 2.0 0.00 0.00 0.00 80 1015.4
20260506013035 58 247 1.0 2.0 0.00 0.00 0.00 80 1015.4
20260506012604 59 249 0.0 4.0 0.00 0.00 0.00 79 1015.3
20260506012021 59 0 0.0 4.0 0.00 0.00 0.00 79 1015.4
20260506011545 59 0 1.0 4.0 0.00 0.00 0.00 78 1015.4
20260506011023 59 0 1.0 3.0 0.00 0.00 0.00 78 1015.4
20260506010522 59 210 0.0 2.0 0.00 0.00 0.00 78 1015.5
20260506010040 59 0 0.0 4.0 0.00 0.00 0.00 77 1015.5
20260506005522 59 247 0.0 4.0 0.00 0.00 0.00 78 1015.5
20260506005021 60 241 0.0 2.0 0.00 0.00 0.00 78 1015.6
20260506004536 59 200 0.0 4.0 0.00 0.00 0.00 78 1015.5
20260506004023 59 0 0.0 4.0 0.00 0.00 0.00 78 1015.5
20260506003522 59 246 1.0 4.0 0.00 0.00 0.00 77 1015.5
20260506003038 59 0 0.0 2.0 0.00 0.00 0.00 79 1015.5
20260506002521 60 0 0.0 2.0 0.00 0.00 0.00 79 1015.6
20260506002022 59 0 0.0 2.0 0.00 0.00 0.00 78 1015.4
20260506001539 59 0 0.0 2.0 0.00 0.00 0.00 79 1015.6
20260506001022 59 0 0.0 3.0 0.00 0.00 0.00 79 1015.6
20260506000526 59 207 0.0 3.0 0.00 0.00 0.00 78 1015.6
20260506000048 59 0 0.0 3.0 0.00 0.00 0.00 78 1015.7
20260505235526 59 0 0.0 2.0 0.00 0.00 0.00 79 1015.8
20260505235022 59 0 0.0 1.0 0.00 0.00 0.00 79 1015.8
20260505234542 60 0 0.0 1.0 0.00 0.00 0.00 79 1015.8
20260505234025 59 0 0.0 1.0 0.00 0.00 0.00 79 1015.8
20260505233522 59 0 0.0 0.0 0.00 0.00 0.00 79 1015.8
20260505233037 59 0 0.0 2.0 0.00 0.00 0.00 78 1015.7
20260505232522 59 0 0.0 2.0 0.00 0.00 0.00 79 1015.7
20260505232024 59 0 0.0 2.0 0.00 0.00 0.00 78 1015.7
20260505231601 59 0 0.0 3.0 0.00 0.00 0.00 80 1015.8
20260505231022 59 0 0.0 3.0 0.00 0.00 0.00 78 1015.8
20260505230522 59 0 0.0 3.0 0.00 0.00 0.00 79 1015.9
20260505230043 59 194 1.0 3.0 0.00 0.00 0.00 79 1015.9
20260505225522 59 146 0.0 3.0 0.00 0.00 0.00 81 1016.0
20260505225022 58 0 0.0 5.0 0.00 0.00 0.00 80 1016.0
20260505224546 57 277 1.0 7.0 0.00 0.00 0.00 81 1016.1
20260505224023 57 157 2.0 7.0 0.00 0.00 0.00 80 1016.0
20260505223524 57 132 2.0 7.0 0.00 0.00 0.00 81 1016.1
20260505223040 57 116 2.0 7.0 0.00 0.00 0.00 82 1016.1
20260505222523 57 140 2.0 6.0 0.00 0.00 0.00 81 1016.2
20260505222023 57 0 2.0 4.0 0.00 0.00 0.00 81 1016.2
20260505221539 57 152 1.0 4.0 0.00 0.00 0.00 81 1016.2
20260505221023 58 100 0.0 4.0 0.00 0.00 0.00 80 1016.3
20260505220522 57 198 1.0 4.0 0.00 0.00 0.00 81 1016.4
20260505220043 57 93 1.0 3.0 0.00 0.00 0.00 81 1016.5
20260505215522 57 102 0.0 4.0 0.00 0.00 0.00 81 1016.5
20260505215022 57 230 1.0 6.0 0.00 0.00 0.00 82 1016.3
20260505214602 56 97 1.0 6.0 0.00 0.00 0.00 82 1016.3
20260505214022 56 103 2.0 6.0 0.00 0.00 0.00 82 1016.4
20260505213522 56 0 0.0 6.0 0.00 0.00 0.00 82 1016.4
20260505213040 56 164 1.0 8.0 0.00 0.00 0.00 82 1016.4
20260505212521 56 99 2.0 8.0 0.00 0.00 0.00 82 1016.4
20260505212027 56 129 2.0 8.0 0.00 0.00 0.00 81 1016.2
20260505211539 56 248 0.0 6.0 0.00 0.00 0.00 82 1016.2
20260505211022 56 105 2.0 6.0 0.00 0.00 0.00 82 1016.2
20260505210521 56 287 1.0 7.0 0.00 0.00 0.00 82 1016.2
20260505210039 56 152 2.0 7.0 0.00 0.00 0.00 82 1016.2
20260505205523 56 304 2.0 7.0 0.00 0.00 0.00 83 1016.4
20260505205023 56 0 1.0 8.0 0.00 0.00 0.00 83 1016.3
20260505204543 55 127 1.0 8.0 0.00 0.00 0.00 83 1016.4
20260505204022 55 274 1.0 8.0 0.00 0.00 0.00 84 1016.3
20260505203525 55 94 1.0 8.0 0.00 0.00 0.00 83 1016.3
20260505203034 55 114 2.0 8.0 0.00 0.00 0.00 83 1016.3
20260505202522 55 118 0.0 4.0 0.00 0.00 0.00 83 1016.3
20260505202022 55 188 0.0 6.0 0.00 0.00 0.00 83 1016.3
20260505201539 55 115 1.0 6.0 0.00 0.00 0.00 83 1016.3
20260505201025 55 101 2.0 6.0 0.00 0.00 0.00 84 1016.3
20260505200523 55 112 1.0 4.0 0.00 0.00 0.00 83 1016.3
20260505200045 55 0 0.0 3.0 0.00 0.00 0.00 83 1016.3
20260505195522 55 0 0.0 6.0 0.00 0.00 0.00 84 1016.4
20260505195022 55 0 0.0 7.0 0.00 0.00 0.00 84 1016.4
20260505194535 55 112 2.0 7.0 0.00 0.00 0.00 84 1016.3
20260505194023 55 104 1.0 8.0 0.00 0.00 0.00 84 1016.3
20260505193521 54 106 1.0 8.0 0.00 0.00 0.00 85 1016.3
20260505193042 54 120 2.0 8.0 0.00 0.00 0.00 84 1016.3
20260505192522 54 144 3.0 8.0 0.00 0.00 0.00 85 1016.2
20260505192022 54 157 0.0 7.0 0.00 0.00 0.00 86 1016.3
20260505191545 54 98 1.0 7.0 0.00 0.00 0.00 86 1016.2
20260505191022 54 126 2.0 7.0 0.00 0.00 0.00 86 1016.3
20260505190519 54 84 3.0 7.0 0.00 0.00 0.00 86 1016.4
20260505190040 54 103 0.0 4.0 0.00 0.00 0.00 86 1016.3
20260505185519 53 132 0.0 4.0 0.00 0.00 0.00 86 1016.3
20260505185022 53 98 1.0 6.0 0.00 0.00 0.00 87 1016.3
20260505184538 54 107 1.0 6.0 0.00 0.00 0.00 86 1016.2
20260505184019 53 109 1.0 6.0 0.00 0.00 0.00 86 1016.3
20260505183520 53 0 0.0 4.0 0.00 0.00 0.00 87 1016.2
20260505183051 53 0 1.0 5.0 0.00 0.00 0.00 87 1016.3
20260505182519 53 94 0.0 5.0 0.00 0.00 0.00 87 1016.2
20260505182018 54 242 1.0 5.0 0.00 0.00 0.00 86 1016.2
20260505181535 53 0 0.0 5.0 0.00 0.00 0.00 87 1016.1
20260505181020 53 0 1.0 5.0 0.00 0.00 0.00 87 1016.2
20260505180519 53 106 1.0 7.0 0.00 0.00 0.00 87 1016.2
20260505180048 53 105 0.0 7.0 0.00 0.00 0.00 87 1016.2
20260505175519 53 236 1.0 3.0 0.00 0.00 0.00 87 1016.2
20260505175020 53 0 0.0 2.0 0.00 0.00 0.00 86 1016.2
20260505174545 53 0 0.0 3.0 0.00 0.00 0.00 86 1016.2
20260505174019 53 107 0.0 4.0 0.00 0.00 0.00 87 1016.2
20260505173524 53 0 0.0 4.0 0.00 0.00 0.00 86 1016.2
20260505173038 53 80 0.0 3.0 0.00 0.00 0.00 86 1016.2
20260505172518 53 147 0.0 2.0 0.00 0.00 0.00 87 1016.1
20260505172018 53 0 0.0 3.0 0.00 0.00 0.00 87 1016.2
20260505171535 53 0 0.0 3.0 0.00 0.00 0.00 88 1016.2
20260505171021 52 127 1.0 4.0 0.00 0.00 0.00 88 1016.2
20260505170518 52 114 1.0 6.0 0.00 0.00 0.00 88 1016.1
20260505170034 52 123 1.0 6.0 0.00 0.00 0.00 87 1016.3
20260505165518 53 0 1.0 6.0 0.00 0.00 0.00 87 1016.3
20260505165019 53 111 0.0 4.0 0.00 0.00 0.00 87 1016.2
20260505164538 53 0 0.0 4.0 0.00 0.00 0.00 87 1016.2
20260505164019 52 0 1.0 4.0 0.00 0.00 0.00 87 1016.2
20260505163520 52 0 0.0 3.0 0.00 0.00 0.00 86 1016.2
20260505163038 52 0 0.0 4.0 0.00 0.00 0.00 87 1016.2
20260505162518 52 211 1.0 4.0 0.00 0.00 0.00 87 1016.1
20260505162018 52 219 0.0 6.0 0.00 0.00 0.00 88 1016.1
20260505161535 52 143 1.0 6.0 0.00 0.00 0.00 88 1016.0
20260505161020 52 118 1.0 6.0 0.00 0.00 0.00 88 1016.0
20260505160522 52 107 1.0 7.0 0.00 0.00 0.00 88 1016.1
20260505153039 51 140 1.0 4.0 0.00 0.00 0.00 88 1016.0
20260505152518 52 119 0.0 4.0 0.00 0.00 0.00 88 1016.0
20260505152017 52 171 1.0 6.0 0.00 0.00 0.00 88 1016.1
20260505151535 52 0 0.0 6.0 0.00 0.00 0.00 88 1015.9
20260505151018 52 107 1.0 6.0 0.00 0.00 0.00 88 1015.8
20260505150525 51 115 1.0 4.0 0.00 0.00 0.00 89 1015.8
20260505140519 51 103 0.0 3.0 0.00 0.00 0.00 91 1015.0
20260505125022 50 0 2.0 7.0 0.00 0.00 0.00 92 1014.4
20260505124537 50 124 2.0 6.0 0.00 0.00 0.00 92 1014.4
20260505124021 50 107 2.0 6.0 0.00 0.00 0.00 92 1014.4
20260505123524 50 110 2.0 6.0 0.00 0.00 0.00 92 1014.4
20260505123037 50 119 1.0 7.0 0.00 0.00 0.00 92 1014.4
20260505122520 50 132 2.0 7.0 0.00 0.00 0.00 92 1014.4
20260505122019 50 113 2.0 7.0 0.00 0.00 0.00 92 1014.3
20260505121542 51 98 2.0 7.0 0.00 0.00 0.00 92 1014.2
20260505121019 51 187 2.0 7.0 0.00 0.00 0.00 92 1014.2
20260505120522 51 99 2.0 7.0 0.00 0.00 0.00 92 1014.3
20260505120046 51 119 2.0 7.0 0.00 0.00 0.00 91 1014.2
20260505115521 51 102 1.0 6.0 0.00 0.00 0.00 91 1014.1
20260505115023 51 105 2.0 6.0 0.00 0.00 0.00 91 1014.1
20260505114545 51 114 1.0 5.0 0.00 0.00 0.00 91 1014.1
20260505114021 51 101 1.0 6.0 0.00 0.00 0.00 91 1014.0
20260505113519 51 186 1.0 6.0 0.00 0.00 0.00 91 1014.1
20260505113035 51 114 2.0 6.0 0.00 0.00 0.00 91 1014.1
20260505112519 51 117 2.0 6.0 0.00 0.00 0.00 91 1014.1
20260505112019 51 127 2.0 6.0 0.00 0.00 0.00 91 1014.0
20260505111539 51 137 0.0 6.0 0.00 0.00 0.00 91 1014.0
20260505111019 51 0 2.0 7.0 0.00 0.00 0.00 91 1013.8
20260505110518 51 96 1.0 7.0 0.00 0.00 0.00 91 1013.9
20260505102019 51 96 0.0 5.0 0.00 0.00 0.00 90 1013.5
20260505101549 51 207 1.0 6.0 0.00 0.00 0.00 90 1013.5
20260505101019 51 0 0.0 6.0 0.00 0.00 0.00 90 1013.5
20260505100520 51 196 1.0 6.0 0.00 0.00 0.00 90 1013.5
20260505100040 51 121 1.0 4.0 0.00 0.00 0.00 90 1013.4
20260505095519 51 120 1.0 6.0 0.00 0.00 0.00 90 1013.4
20260505095018 51 268 0.0 6.0 0.00 0.00 0.00 90 1013.3
20260505094541 51 150 1.0 6.0 0.00 0.00 0.00 90 1013.4
20260505094020 51 0 0.0 6.0 0.00 0.00 0.00 90 1013.2
20260505093519 51 109 1.0 6.0 0.00 0.00 0.00 90 1013.2
20260505093035 52 109 1.0 6.0 0.00 0.00 0.00 89 1013.2
20260505092522 52 132 1.0 6.0 0.00 0.00 0.00 89 1013.2
20260505092019 52 0 1.0 7.0 0.00 0.00 0.00 89 1013.2
20260505091547 52 0 2.0 7.0 0.00 0.00 0.00 88 1013.1
20260505091020 52 92 1.0 4.0 0.00 0.00 0.00 88 1013.1
20260505090520 52 0 2.0 4.0 0.00 0.00 0.00 88 1013.1
20260505090041 53 123 1.0 4.0 0.00 0.00 0.00 88 1013.1
20260505085524 53 0 0.0 7.0 0.00 0.00 0.00 88 1013.2
20260505085023 53 67 1.0 7.0 0.00 0.00 0.00 87 1013.2
20260505084538 53 123 2.0 7.0 0.00 0.00 0.00 87 1013.1
20260505084020 53 96 2.0 9.0 0.00 0.00 0.00 87 1013.2
20260505083520 53 98 2.0 9.0 0.00 0.00 0.00 86 1013.1
20260505083035 54 94 2.0 7.0 0.00 0.00 0.00 86 1013.0
20260505082521 54 119 3.0 7.0 0.00 0.00 0.00 85 1013.0
20260505082021 54 113 2.0 7.0 0.00 0.00 0.00 85 1012.9
20260505081539 54 164 1.0 6.0 0.00 0.00 0.00 85 1012.9
20260505081024 54 129 2.0 7.0 0.00 0.00 0.00 85 1012.9
20260505080519 55 108 1.0 7.0 0.00 0.00 0.00 84 1013.0
20260505080039 55 119 2.0 7.0 0.00 0.00 0.00 84 1012.9
20260505075520 55 105 2.0 7.0 0.00 0.00 0.00 84 1012.8
20260505075022 55 113 2.0 7.0 0.00 0.00 0.00 84 1012.7
20260505074535 55 103 2.0 7.0 0.00 0.00 0.00 83 1012.6
20260505074020 55 109 2.0 7.0 0.00 0.00 0.00 83 1012.6
20260505073523 55 117 2.0 6.0 0.00 0.00 0.00 82 1012.5
20260505073037 56 109 2.0 6.0 0.00 0.00 0.00 82 1012.5
20260505072520 56 144 1.0 6.0 0.00 0.00 0.00 82 1012.4
20260505072020 56 115 2.0 6.0 0.00 0.00 0.00 81 1012.4
20260505071553 56 0 3.0 6.0 0.00 0.00 0.00 81 1012.3
20260505071021 56 101 2.0 6.0 0.00 0.00 0.00 81 1012.1
20260505070524 57 107 1.0 7.0 0.00 0.00 0.00 80 1012.3
20260505070041 57 101 2.0 7.0 0.00 0.00 0.00 80 1012.1
20260505065520 57 0 0.0 1.0 0.00 0.00 0.00 79 1012.0
20260505065019 57 0 0.0 1.0 0.00 0.00 0.00 79 1012.1
20260505064541 57 0 0.0 4.0 0.00 0.00 0.00 79 1012.0
20260505064022 58 0 0.0 7.0 0.00 0.00 0.00 78 1011.9
20260505063520 58 131 2.0 7.0 0.00 0.00 0.00 78 1011.9
20260505063044 58 100 2.0 7.0 0.00 0.00 0.00 78 1011.9
20260505062523 58 143 1.0 7.0 0.00 0.00 0.00 78 1011.9
20260505062023 58 159 1.0 4.0 0.00 0.00 0.00 78 1011.8
20260505061544 58 108 1.0 3.0 0.00 0.00 0.00 78 1011.8
20260505061025 58 0 0.0 2.0 0.00 0.00 0.00 77 1011.8
20260505060524 59 0 0.0 2.0 0.00 0.00 0.00 77 1011.9
20260505060047 59 0 0.0 4.0 0.00 0.00 0.00 76 1011.9
20260505055525 60 0 1.0 6.0 0.00 0.00 0.00 75 1011.8
20260505055022 60 107 2.0 6.0 0.00 0.00 0.00 74 1011.8
20260505054539 60 105 2.0 6.0 0.00 0.00 0.00 74 1011.8
20260505054023 61 0 0.0 2.0 0.00 0.00 0.00 73 1011.8
20260505053523 60 0 0.0 2.0 0.00 0.00 0.00 74 1011.9
20260505053038 61 163 0.0 3.0 0.00 0.00 0.00 73 1011.9
20260505052522 61 0 0.0 3.0 0.00 0.00 0.00 73 1011.8
20260505052023 61 183 0.0 2.0 0.00 0.00 0.00 72 1011.6
20260505051557 61 0 0.0 3.0 0.00 0.00 0.00 72 1011.7
20260505051023 61 153 1.0 4.0 0.00 0.00 0.00 72 1011.6
20260505050525 62 144 1.0 4.0 0.00 0.00 0.00 69 1011.5